User: anonymous   Login
Location: Bezawada
(16.5136°N, 80.6297°E)
Time: 17:21:16
(UTC+00:00)
Language:

FALCON 9 R/B - Orbit

View from above orbital plane
View from above orbital plane
View from above satellite
View from above satellite

Ground track
Ground track

The orbit data is extracted from the following two-line orbital elements,

1 43563U 18059B   20151.46072900 +.00028265 +00000-0 +98602-3 0  9992
2 43563 027.0606 324.4935 5638507 119.8120 307.5489 04.67593351031159
Epoch (UTC): 30 May 2020 11:03:26
Eccentricity: 0.5638507
inclination: 27.0606°
perigee height: 210 km
apogee height: 17245 km
right ascension of ascending node: 324.4935°
argument of perigee: 119.8120°
revolutions per day: 4.67593351
mean anomaly at epoch: 307.5489°
orbit number at epoch: 3115

The dashed part of the orbit path shows where the satellite is in the earth's shadow,  

DLR